Regional Weather Roundup
Issued by NWS

Home | Current Version | Previous Version | Text Only | Print | Product List | Glossary Off
Versions: 1 2 3 4 5 6 7 8 9 10 11 12 13 14 15 16 17 18 19 20 21 22 23 24 25 26 27 28 29 30 31 32 33 34 35 36 37 38 39 40 41 42 43 44 45 46 47 48 49 50

000
ASUS43 KDTX 221001
RWRMI
MICHIGAN HOURLY REGIONAL WEATHER ROUNDUP
NATIONAL WEATHER SERVICE DETROIT/PONTIAC MI
600 AM EDT SAT JUL 22 2017

NOTE: "FAIR" INDICATES FEW OR NO CLOUDS BELOW 12,000 FEET WITH NO
SIGNIFICANT WEATHER AND/OR OBSTRUCTION TO VISIBILITY.

MIZ047>049-052>055-059>063-066>070-074>076-081>083-221100-
SOUTHEAST LOWER MICHIGAN

CITY           SKY/WX    TMP DP  RH WIND       PRES   REMARKS
ADRIAN         LGT RAIN  72  71  97 CALM      29.87F FOG
ALMA           LGT RAIN  70  69  95 NW6       29.86S
ANN ARBOR      LGT RAIN  72  71  97 SW5       29.86S
BAD AXE        LGT RAIN  68  66  93 CALM      29.87S
CARO           CLOUDY    71  68  90 SW8       29.87R
DETROIT CITY   CLOUDY    77  70  79 S5        29.86F
DETROIT        LGT RAIN  76  71  85 S3        29.86F
FLINT          CLOUDY    74  68  81 SE5       29.84F
GROSSE ILE     CLOUDY    76  72  87 CALM      29.85F
HILLSDALE      LGT RAIN  70  66  88 S5        29.88R
HOWELL         CLOUDY    74  67  79 S7        29.84F

CITY           SKY/WX    TMP DP  RH WIND       PRES   REMARKS
JACKSON        CLOUDY    72  69  90 S9        29.85F
LAMBERTVILLE   RAIN      73  72  97 CALM      29.85F
LANSING        CLOUDY    74  65  73 S10       29.84F
LAPEER         CLOUDY    72  68  89 CALM      29.86F
MASON          CLOUDY    72  68  88 S7        29.84F
MONROE         LGT RAIN  73  71  93 SW3       29.85S
MT. CLEMENS    CLOUDY    76  71  84 S8        29.85S
PONTIAC        CLOUDY    76  69  79 S7        29.85F
PORT HOPE        N/A     70  67  90 CALM      29.85S
PORT HURON     CLOUDY    72  68  88 CALM      29.87S
TRI CITIES     LGT RAIN  71  70  96 E9        29.87F FOG
MIDLAND        LGT RAIN  71  69  94 SE3       29.86R
TROY           CLOUDY    78  69  73 S5        29.88F
SAGINAW HB     LGT RAIN  68  66  94 N8        29.86F
$$
MIZ043>046-050>051-056>058-064>065-071>073-077>080-221100-
SOUTHWEST LOWER MICHIGAN

CITY           SKY/WX    TMP DP  RH WIND       PRES   REMARKS
BATTLE CREEK   CLOUDY    70  68  93 S14       29.82F
BENTON HARBOR  CLOUDY    72  69  90 SE15      29.74F
BIG RAPIDS     CLOUDY    66  63  91 W5        29.83F
COLDWATER      CLOUDY    69  69 100 S7        29.85F
FREMONT        CLOUDY    69  65  87 E7        29.80F
HOLLAND        CLOUDY    70  67  90 SE5       29.81F
GRAND RAPIDS   CLOUDY    71  67  87 SE7       29.81F
IONIA          LGT RAIN  72  66  80 CALM      29.83R
KALAMAZOO      CLOUDY    72  69  90 S9        29.81F
LUDINGTON      CLOUDY    67  64  91 E9        29.79F
MARSHALL       CLOUDY    70  70  99 S6        29.84F
MUSKEGON       CLOUDY    71  68  90 SE6       29.80F
SOUTH HAVEN    LGT RAIN  70  70  98 CALM      29.79S
$$
MIZ016>042-221100-
NORTHERN LOWER MICHIGAN

CITY           SKY/WX    TMP DP  RH WIND       PRES   REMARKS
ALPENA         CLOUDY    67  63  87 CALM      29.88F
BEAVER ISLAND  MOCLDY    65  64  96 CALM      29.87S
BELLAIRE       CLOUDY    68  64  89 CALM      29.85F
CADILLAC       CLOUDY    69  64  86 SE3       29.84F
CHARLEVOIX     CLOUDY    69  65  87 CALM      29.89F
FRANKFORT      CLOUDY    70  66  87 CALM      29.82F
GAYLORD        CLOUDY    69  62  78 CALM      29.89F
GRAYLING       CLOUDY    67  64  89 N3        29.87S
HARBOR SPRINGS CLOUDY    66  63  89 CALM      29.87S
HOUGHTON LAKE  CLOUDY    68  65  90 E3        29.86F
MANISTEE       CLOUDY    68  65  90 NE5       29.80F
OSCODA         CLOUDY    67  65  91 CALM      29.86F
PELLSTON       CLOUDY    63  61  93 CALM      29.87F
ROGERS CITY    CLOUDY    65  61  86 CALM      29.89S
TRAVERSE CITY  CLOUDY    73  62  68 CALM      29.82S
$$
MIZ007>008-015-221100-
EASTERN UPPER MICHIGAN

CITY           SKY/WX    TMP DP  RH WIND       PRES   REMARKS
KINROSS        CLEAR     60  55  83 E5        29.89F
MACKINAC ISLAN CLOUDY    66  61  83 E3        29.87S
NEWBERRY       CLOUDY    60  54  79 CALM      29.87S
S. S. MARIE    CLEAR     59  54  83 CALM      29.89R
MUNISING         N/A     64  64 100 S6        29.84S
$$
MIZ004>006-011>014-085-221100-
CENTRAL UPPER MICHIGAN

CITY           SKY/WX    TMP DP  RH WIND       PRES   REMARKS
MANISTIQUE     MOCLDY    66  63  89 SE5       29.84F
ESCANABA       PTCLDY    69  64  84 SW6       29.83S
MENOMINEE      CLOUDY    69  61  75 SW3       29.83S
SAWYER-GWINN   FOG       63  63  98 S5        29.85S VSB 1/2
$$
MIZ001>003-009>011-084-221100-
WESTERN UPPER MICHIGAN

CITY           SKY/WX    TMP DP  RH WIND       PRES   REMARKS
IRON MOUNTAIN  CLOUDY    65  60  84 SE3       29.82S
HOUGHTON       CLOUDY    62  51  67 E7G17     29.83S
COPPER HARBOR    N/A     67  47  48 S8G18     29.81F
IRONWOOD       CLOUDY    64  64 100 CALM      29.82S
$$

ABBREVIATIONS USED IN REMARKS
   TC - TEMPERATURE IN CELSIUS
  WCI - WIND CHILL INDEX
   HX - HEAT INDEX
  VSB - VISIBILITY





USA.gov is the U.S. government's official web portal to all federal, state and local government web resources and services.